DLH4EV EDDF-EDDS

Flight info

Callsign DLH4EV
Flight time 0h 23m
Altitude 17000
Route ANEKI2L/18 ANEKI Y163 NEKLO Y171 INKAM N850 KRH T128 BADSO BADSO2A
Aircraft A320/M-SDE2E3FGIJ1LORWXYZ/HB1

Departure

Time 2026-05-03 21:50
Airport Frankfurt Main Airport (EDDF)

Arrival

Time 2026-05-03 22:13
Airport Stuttgart Airport (EDDS)
Time Latitude Longitude Altitude Speed Heading
2026-05-03 21:26 50.04960 8.59076 363 ft 0 kts 159°
2026-05-03 21:42 50.04972 8.59069 367 ft 4 kts 159°
2026-05-03 21:42 50.04993 8.59057 362 ft 3 kts 160°
2026-05-03 21:42 50.05018 8.59048 360 ft 4 kts 188°
2026-05-03 21:42 50.05041 8.59063 363 ft 4 kts 231°
2026-05-03 21:43 50.05052 8.59094 360 ft 2 kts 249°
2026-05-03 21:43 50.05052 8.59096 360 ft 0 kts 249°
2026-05-03 21:45 50.05045 8.59069 365 ft 7 kts 249°
2026-05-03 21:46 50.05020 8.58959 360 ft 15 kts 250°
2026-05-03 21:46 50.04975 8.58769 360 ft 22 kts 250°
2026-05-03 21:46 50.04916 8.58674 360 ft 10 kts 175°
2026-05-03 21:46 50.04859 8.58700 363 ft 7 kts 160°
2026-05-03 21:47 50.04804 8.58731 365 ft 9 kts 160°
2026-05-03 21:47 50.04737 8.58767 371 ft 11 kts 163°
2026-05-03 21:47 50.04658 8.58759 370 ft 12 kts 187°
2026-05-03 21:47 50.04578 8.58706 371 ft 14 kts 219°
2026-05-03 21:48 50.04501 8.58607 371 ft 10 kts 221°
2026-05-03 21:48 50.04481 8.58562 370 ft 4 kts 248°
2026-05-03 21:48 50.04480 8.58558 370 ft 0 kts 249°
2026-05-03 21:49 50.04480 8.58556 370 ft 3 kts 249°
2026-05-03 21:49 50.04410 8.58266 371 ft 67 kts 249°
2026-05-03 21:50 50.04161 8.57224 366 ft 134 kts 249°
2026-05-03 21:50 50.03777 8.55616 525 ft 172 kts 248°
2026-05-03 21:50 50.03367 8.53890 1367 ft 168 kts 248°
2026-05-03 21:50 50.02947 8.52176 2113 ft 175 kts 248°
2026-05-03 21:51 50.02252 8.50535 2542 ft 197 kts 219°
2026-05-03 21:51 50.00963 8.49604 3126 ft 212 kts 201°
2026-05-03 21:51 49.99561 8.48827 3965 ft 216 kts 204°
2026-05-03 21:51 49.98055 8.48657 4791 ft 229 kts 170°
2026-05-03 21:52 49.96708 8.50015 5472 ft 238 kts 137°
2026-05-03 21:52 49.95603 8.51921 6499 ft 237 kts 141°
2026-05-03 21:52 49.94325 8.53487 7409 ft 233 kts 154°
2026-05-03 21:52 49.92876 8.54709 8075 ft 245 kts 164°
2026-05-03 21:53 49.91169 8.55226 8631 ft 257 kts 182°
2026-05-03 21:53 49.89362 8.55155 9499 ft 262 kts 188°
2026-05-03 21:53 49.87529 8.54919 10335 ft 271 kts 188°
2026-05-03 21:53 49.85569 8.54656 10754 ft 293 kts 187°
2026-05-03 21:54 49.83496 8.54433 11433 ft 304 kts 186°
2026-05-03 21:54 49.81359 8.54269 12224 ft 312 kts 185°
2026-05-03 21:54 49.79160 8.54152 12815 ft 320 kts 184°
2026-05-03 21:54 49.76938 8.54587 12992 ft 328 kts 165°
2026-05-03 21:55 49.74881 8.56173 13035 ft 333 kts 152°
2026-05-03 21:55 49.72906 8.58037 13033 ft 333 kts 152°
2026-05-03 21:55 49.70932 8.59922 13034 ft 333 kts 152°
2026-05-03 21:55 49.68961 8.61803 13033 ft 333 kts 152°
2026-05-03 21:56 49.66988 8.63681 13032 ft 333 kts 152°
2026-05-03 21:56 49.65017 8.65548 13031 ft 333 kts 152°
2026-05-03 21:56 49.63045 8.67414 13029 ft 332 kts 152°
2026-05-03 21:56 49.61079 8.69274 13033 ft 331 kts 152°
2026-05-03 21:57 49.59137 8.71108 13034 ft 331 kts 152°
2026-05-03 21:57 49.57167 8.72966 13033 ft 331 kts 152°
2026-05-03 21:57 49.55201 8.74816 13033 ft 331 kts 152°
2026-05-03 21:57 49.53236 8.76664 13035 ft 331 kts 152°
2026-05-03 21:58 49.51270 8.78511 13035 ft 331 kts 152°
2026-05-03 21:58 49.49303 8.80355 13036 ft 331 kts 152°
2026-05-03 21:58 49.47333 8.82203 13036 ft 332 kts 152°
2026-05-03 21:58 49.45357 8.84057 13037 ft 332 kts 152°
2026-05-03 21:59 49.43390 8.85900 13038 ft 331 kts 152°
2026-05-03 21:59 49.41421 8.87741 13038 ft 331 kts 152°
2026-05-03 21:59 49.39452 8.89580 13032 ft 332 kts 152°
2026-05-03 21:59 49.37481 8.91420 13040 ft 331 kts 152°
2026-05-03 22:00 49.35528 8.93241 12916 ft 324 kts 153°
2026-05-03 22:00 49.33631 8.95014 12656 ft 315 kts 153°
2026-05-03 22:00 49.31778 8.96745 12398 ft 308 kts 154°
2026-05-03 22:00 49.29969 8.98431 12144 ft 301 kts 154°
2026-05-03 22:01 49.28200 9.00074 11893 ft 294 kts 154°
2026-05-03 22:01 49.26462 9.01686 11635 ft 289 kts 154°
2026-05-03 22:01 49.24762 9.03262 11395 ft 284 kts 154°
2026-05-03 22:01 49.23084 9.04817 11155 ft 281 kts 154°
2026-05-03 22:02 49.21418 9.06356 10901 ft 279 kts 154°
2026-05-03 22:02 49.19761 9.07883 10659 ft 277 kts 154°
2026-05-03 22:02 49.18134 9.09382 10423 ft 276 kts 154°
2026-05-03 22:02 49.16496 9.10892 10175 ft 274 kts 154°
2026-05-03 22:03 49.14865 9.12394 9938 ft 273 kts 154°
2026-05-03 22:03 49.13241 9.13890 9704 ft 272 kts 154°
2026-05-03 22:03 49.11625 9.15380 9467 ft 271 kts 154°
2026-05-03 22:03 49.10011 9.16870 9230 ft 271 kts 154°
2026-05-03 22:04 49.08399 9.18353 8997 ft 270 kts 154°
2026-05-03 22:04 49.06789 9.19829 8775 ft 270 kts 154°
2026-05-03 22:04 49.05703 9.20826 8608 ft 269 kts 154°
2026-05-03 22:04 49.04104 9.22297 8383 ft 269 kts 154°
2026-05-03 22:05 49.02523 9.23747 8155 ft 268 kts 154°
2026-05-03 22:05 49.00904 9.25231 7927 ft 268 kts 154°
2026-05-03 22:05 48.99309 9.26694 7690 ft 268 kts 153°
2026-05-03 22:05 48.97723 9.28148 7470 ft 271 kts 153°
2026-05-03 22:06 48.96132 9.29605 7254 ft 272 kts 153°
2026-05-03 22:06 48.94466 9.31127 7020 ft 271 kts 153°
2026-05-03 22:06 48.92869 9.32584 6805 ft 271 kts 153°
2026-05-03 22:06 48.91249 9.34060 6587 ft 272 kts 153°
2026-05-03 22:07 48.89598 9.35453 6366 ft 271 kts 155°
2026-05-03 22:07 48.87927 9.36769 6127 ft 271 kts 156°
2026-05-03 22:07 48.86249 9.38061 5917 ft 270 kts 156°
2026-05-03 22:07 48.84572 9.39351 5680 ft 270 kts 156°
2026-05-03 22:08 48.82902 9.40643 5451 ft 269 kts 156°
2026-05-03 22:08 48.81254 9.41920 5215 ft 262 kts 156°
2026-05-03 22:08 48.79670 9.43153 4957 ft 247 kts 156°
2026-05-03 22:08 48.78194 9.44309 4704 ft 232 kts 156°
2026-05-03 22:09 48.76798 9.45405 4448 ft 220 kts 156°
2026-05-03 22:09 48.75396 9.46054 4230 ft 207 kts 184°
2026-05-03 22:09 48.74074 9.45516 4010 ft 190 kts 214°
2026-05-03 22:10 48.72761 9.42347 3635 ft 178 kts 255°
2026-05-03 22:10 48.72443 9.40567 3387 ft 172 kts 254°
2026-05-03 22:10 48.72128 9.38882 3183 ft 158 kts 253°
2026-05-03 22:10 48.71840 9.37341 2947 ft 148 kts 253°
2026-05-03 22:11 48.71562 9.35871 2745 ft 142 kts 253°
2026-05-03 22:11 48.71297 9.34451 2557 ft 139 kts 253°
2026-05-03 22:11 48.71033 9.33047 2409 ft 139 kts 253°
2026-05-03 22:11 48.70766 9.31629 2223 ft 141 kts 253°
2026-05-03 22:12 48.70494 9.30189 2020 ft 143 kts 254°
2026-05-03 22:12 48.70222 9.28740 1824 ft 144 kts 254°
2026-05-03 22:12 48.69948 9.27284 1624 ft 143 kts 254°
2026-05-03 22:12 48.69675 9.25843 1431 ft 142 kts 254°
2026-05-03 22:13 48.69405 9.24411 1255 ft 141 kts 254°
2026-05-03 22:13 48.69153 9.23066 1216 ft 115 kts 254°
2026-05-03 22:13 48.68979 9.22149 1237 ft 66 kts 254°
2026-05-03 22:13 48.68871 9.21576 1254 ft 44 kts 254°
2026-05-03 22:14 48.68821 9.21279 1265 ft 26 kts 261°
2026-05-03 22:14 48.68831 9.21014 1263 ft 25 kts 283°
2026-05-03 22:14 48.68865 9.20808 1272 ft 13 kts 284°
2026-05-03 22:14 48.68877 9.20684 1275 ft 10 kts 258°
2026-05-03 22:15 48.68860 9.20599 1279 ft 7 kts 254°
2026-05-03 22:15 48.68847 9.20528 1279 ft 8 kts 254°
2026-05-03 22:15 48.68829 9.20431 1284 ft 11 kts 253°
2026-05-03 22:15 48.68804 9.20301 1284 ft 15 kts 253°
2026-05-03 22:16 48.68773 9.20139 1288 ft 18 kts 256°
2026-05-03 22:16 48.68761 9.20008 1292 ft 8 kts 286°
2026-05-03 22:16 48.68781 9.19972 1294 ft 2 kts 315°
2026-05-03 22:16 48.68791 9.19956 1295 ft 3 kts 315°
2026-05-03 22:17 48.68810 9.19927 1297 ft 5 kts 315°
2026-05-03 22:17 48.68860 9.19886 1300 ft 10 kts 345°
2026-05-03 22:17 48.68893 9.19837 1304 ft 5 kts 278°
2026-05-03 22:17 48.68878 9.19759 1306 ft 10 kts 253°
2026-05-03 22:18 48.68858 9.19650 1309 ft 10 kts 253°
2026-05-03 22:18 48.68842 9.19569 1310 ft 7 kts 254°
2026-05-03 22:18 48.68828 9.19492 1312 ft 9 kts 254°
2026-05-03 22:18 48.68841 9.19452 1313 ft 3 kts 348°
2026-05-03 22:19 48.68871 9.19439 1315 ft 3 kts 343°
2026-05-03 22:19 48.68882 9.19435 1315 ft 0 kts 344°
2026-05-03 22:19 48.68893 9.19430 1315 ft 1 kts 344°
2026-05-03 22:19 48.68897 9.19428 1315 ft 0 kts 344°